Regional Weather Roundup
Issued by NWS Portland, ME

Current Version | Previous Version | Text Only | Print | Product List | Glossary Off
Versions: 1 2 3 4 5 6 7 8 9 10 11 12 13 14 15 16 17 18 19 20 21 22 23 24 25 26 27 28 29 30 31 32 33 34 35 36 37 38 39 40 41 42 43 44 45 46 47 48 49 50
000 ASUS41 KGYX 230510 RWRGYX WEATHER ROUNDUP FOR MAINE AND NEW HAMPSHIRE NATIONAL WEATHER SERVICE GRAY ME 100 AM EDT TUE MAY 23 2017 MEZ002-005-006-010-012-015-018-020-021-024-026-027-029-230600- MAINE CITY SKY/WX TMP DP RH WIND PRES REMARKS PORTLAND LGT RAIN 50 48 93 S6 29.97F SANFORD LGT RAIN 49 49 100 CALM 29.97F WISCASSET CLOUDY 50 48 93 S3 29.99F FOG ROCKLAND LGT RAIN 47 46 97 S8 29.99F FOG FRYEBURG CLOUDY 48 47 96 CALM 29.96F LEWISTONAUBURN CLOUDY 48 47 96 S6 29.97F AUGUSTA CLOUDY 47 46 97 S6 29.98F WATERVILLE CLOUDY 47 47 100 S6 29.95F BANGOR CLOUDY 47 46 97 S9 29.99F GREENVILLE N/A 43 43 100 S7 29.91F MILLINOCKET CLOUDY 44 44 100 VRB3 29.96F HOULTON CLOUDY 46 39 76 S9 29.95F PRESQUE ISLE CLOUDY 47 42 83 S7 29.94R FRENCHVILLE LGT RAIN 46 41 82 S9 29.89F CARIBOU CLOUDY 48 42 80 S14G21 29.92F $$ NHZ002-005-008-009-011-012-014-230600- NEW HAMPSHIRE CITY SKY/WX TMP DP RH WIND PRES REMARKS PORTSMOUTH CLOUDY 50 50 98 E3 29.95F FOG ROCHESTER LGT RAIN 49 47 93 NW3 29.96F FOG NASHUA LGT RAIN 51 51 100 CALM 29.97F MANCHESTER CLOUDY 51 48 89 CALM 29.96F FOG CONCORD CLOUDY 50 48 93 CALM 29.97F LACONIA CLOUDY 48 47 96 CALM 29.96F PLYMOUTH CLOUDY 48 47 96 CALM 29.96F BERLIN CLOUDY 49 45 86 CALM 29.94F WHITEFIELD CLOUDY 49 46 90 CALM 29.95F JAFFREY CLOUDY 49 49 100 CALM 29.96F KEENE CLOUDY 52 50 93 CALM 29.96F LEBANON CLOUDY 51 49 92 NE5 29.95F MT WASHINGTON FOG 37 37 100 W39 N/A VSB 0 $$ VTZ005-007-008-230600- VERMONT CITY SKY/WX TMP DP RH WIND PRES REMARKS ST JOHNSBURY N/A 49 47 93 MISG 29.93F MONTPELIER CLOUDY 49 49 100 CALM 29.98S BURLINGTON CLOUDY 55 53 93 CALM 29.95S $$ MAZ007-012-024-CTZ003-RIZ002-NYZ038-NYZ072-230600- SOUTHERN NEW ENGLAND AND NY CITY SKY/WX TMP DP RH WIND PRES REMARKS BOSTON DRIZZLE 53 53 100 N6 29.96F FOG WORCESTER CLOUDY 50 48 93 N5 29.95F FOG NANTUCKET HVY RAIN 55 53 93 SE21 29.95F FOG PROVIDENCE CLOUDY 57 57 100 CALM 29.94F FOG HARTFORD CLOUDY 53 53 100 N5 29.96F FOG ALBANY CLOUDY 56 48 74 NW5 29.98S NEW YORK CITY CLOUDY 61 57 87 NW9 29.95R $$ ANZ081-ANZ082-ANZ150-NHZ014-MEZ023>029-230600- COASTAL MARINE OBSERVATIONS STATION/POSITION TIME TEMP WIND PRES WAVE AIR SEA DIR/SP/G HT/PER (UTC) (F) (DEG/KT/KT) (MB) (FT/S) MOUNT DESERT ROC 0500 45 1016.4F ISLE OF SHOALS 0400 50 90/ 5/ 6 1015.2F JEFFREYS LEDGE 0406 49 N/A 3/ 5 CASHES LEDGE BUO 0350 48 48 1016.1 2/ 4 GEORGES BANK BUO 0350 48 46 1019.6 3/ 8 $$ .............KEY.............. WCI - WIND CHILL TC - TEMPERATURE IN CELSIUS VSB - VISIBILITY IN MILES HX - HEAT INDEX FAIR- INDICATES FEW OR NO CLOUDS BELOW 12,000 FT, WITH NO SIGNIFICANT WEATHER AND/OR OBSTRUCTIONS TO VISIBILITY.

USA.gov is the U.S. government's official web portal to all federal, state and local government web resources and services.